BAW143 EGLL-VIDP

Flight info

Callsign BAW143
Flight time N/A
Altitude 37000
Route DET L6 DVR UL9 KONAN DCT KOK DCT KOMOB DCT PITES DCT BABEG DCT KUMOM DCT GORPA DCT EVTON DCT AKIKA DCT ENFAR DCT BITLA DCT KOGIS DCT KEA DCT SIT UL607 PAXIS Y707 OBRAN L321 REXUM M872 PMA Y214 RAPMA DCT MEVDO DCT ALROK DCT DEBIN DCT MIDGU M440 TULBU N881 RASKI L639 LAXOM J61 UUD A347 UKASO UKASO7E
Aircraft B789/H-SDE1E2E3FGHIJ2J3J4J5M1RWXY/LB1D1

Departure

Time 2026-05-06 09:48
Airport London Heathrow Airport (EGLL)

Arrival

Time N/A
Airport Indira Gandhi International Airport (VIDP)
Time Latitude Longitude Altitude Speed Heading
2026-05-06 09:14 51.47053 -0.48023 95 ft 0 kts 270°
2026-05-06 09:35 51.47053 -0.48022 92 ft 0 kts 270°
2026-05-06 09:36 51.47053 -0.48005 94 ft 3 kts 270°
2026-05-06 09:36 51.47053 -0.47973 92 ft 3 kts 269°
2026-05-06 09:36 51.47053 -0.47940 92 ft 3 kts 269°
2026-05-06 09:36 51.47053 -0.47909 92 ft 3 kts 267°
2026-05-06 09:37 51.47056 -0.47883 93 ft 3 kts 224°
2026-05-06 09:37 51.47071 -0.47872 92 ft 3 kts 180°
2026-05-06 09:37 51.47083 -0.47872 91 ft 2 kts 179°
2026-05-06 09:37 51.47102 -0.47872 92 ft 3 kts 179°
2026-05-06 09:38 51.47120 -0.47873 92 ft 2 kts 180°
2026-05-06 09:38 51.47123 -0.47873 92 ft 0 kts 180°
2026-05-06 09:40 51.47118 -0.47873 92 ft 1 kts 180°
2026-05-06 09:41 51.47104 -0.47872 92 ft 3 kts 180°
2026-05-06 09:41 51.47072 -0.47872 92 ft 5 kts 180°
2026-05-06 09:41 51.47028 -0.47872 92 ft 7 kts 180°
2026-05-06 09:41 51.46970 -0.47871 92 ft 9 kts 180°
2026-05-06 09:42 51.46899 -0.47871 92 ft 11 kts 180°
2026-05-06 09:42 51.46815 -0.47870 92 ft 13 kts 180°
2026-05-06 09:42 51.46726 -0.47869 92 ft 13 kts 180°
2026-05-06 09:42 51.46658 -0.47927 94 ft 11 kts 249°
2026-05-06 09:43 51.46652 -0.48026 92 ft 7 kts 269°
2026-05-06 09:43 51.46652 -0.48063 92 ft 0 kts 269°
2026-05-06 09:43 51.46652 -0.48075 92 ft 2 kts 270°
2026-05-06 09:43 51.46652 -0.48125 92 ft 6 kts 270°
2026-05-06 09:44 51.46652 -0.48203 92 ft 9 kts 271°
2026-05-06 09:44 51.46653 -0.48312 92 ft 11 kts 269°
2026-05-06 09:44 51.46652 -0.48439 92 ft 12 kts 270°
2026-05-06 09:44 51.46653 -0.48578 92 ft 13 kts 271°
2026-05-06 09:45 51.46642 -0.48718 94 ft 9 kts 239°
2026-05-06 09:45 51.46638 -0.48726 93 ft 0 kts 234°
2026-05-06 09:46 51.46636 -0.48729 93 ft 2 kts 232°
2026-05-06 09:46 51.46614 -0.48754 95 ft 7 kts 211°
2026-05-06 09:46 51.46556 -0.48783 96 ft 10 kts 183°
2026-05-06 09:46 51.46496 -0.48751 94 ft 8 kts 138°
2026-05-06 09:47 51.46479 -0.48677 94 ft 7 kts 94°
2026-05-06 09:47 51.46478 -0.48628 93 ft 0 kts 90°
2026-05-06 09:47 51.46478 -0.48621 93 ft 2 kts 89°
2026-05-06 09:47 51.46480 -0.48348 94 ft 60 kts 90°
2026-05-06 09:48 51.46483 -0.47286 95 ft 128 kts 90°
2026-05-06 09:48 51.46487 -0.45569 240 ft 173 kts 86°
2026-05-06 09:48 51.46508 -0.43556 1124 ft 185 kts 84°
2026-05-06 09:48 51.46320 -0.41416 1933 ft 210 kts 110°
2026-05-06 09:49 51.45490 -0.39293 2422 ft 239 kts 121°
2026-05-06 09:49 51.44550 -0.37017 2960 ft 257 kts 116°
2026-05-06 09:49 51.43837 -0.34475 3690 ft 253 kts 108°
2026-05-06 09:49 51.43287 -0.31757 3987 ft 263 kts 101°
2026-05-06 09:50 51.42875 -0.28884 4481 ft 266 kts 99°
2026-05-06 09:50 51.42449 -0.25973 4980 ft 270 kts 98°
2026-05-06 09:50 51.42048 -0.23029 5498 ft 272 kts 98°
2026-05-06 09:50 51.41647 -0.20045 5976 ft 276 kts 98°
2026-05-06 09:51 51.41232 -0.17020 6470 ft 280 kts 98°
2026-05-06 09:51 51.40847 -0.14239 6924 ft 281 kts 99°
2026-05-06 09:52 51.40424 -0.11175 7401 ft 283 kts 99°
2026-05-06 09:52 51.39997 -0.08085 7889 ft 285 kts 99°
2026-05-06 09:52 51.39567 -0.04977 8395 ft 286 kts 99°
2026-05-06 09:52 51.39133 -0.01849 8853 ft 289 kts 100°
2026-05-06 09:53 51.38694 0.01307 9363 ft 291 kts 100°
2026-05-06 09:53 51.38253 0.04475 9845 ft 293 kts 100°
2026-05-06 09:53 51.37822 0.07555 10252 ft 296 kts 101°
2026-05-06 09:53 51.37364 0.10833 10349 ft 311 kts 101°
2026-05-06 09:54 51.36880 0.14293 10380 ft 327 kts 101°
2026-05-06 09:54 51.36368 0.17932 10413 ft 342 kts 101°
2026-05-06 09:54 51.35834 0.21717 10442 ft 355 kts 101°
2026-05-06 09:54 51.35280 0.25637 10475 ft 367 kts 101°
2026-05-06 09:55 51.34708 0.29669 10628 ft 374 kts 101°
2026-05-06 09:55 51.34131 0.33724 11054 ft 375 kts 101°
2026-05-06 09:55 51.33551 0.37801 11365 ft 377 kts 101°
2026-05-06 09:55 51.32966 0.41897 11676 ft 379 kts 102°
2026-05-06 09:56 51.32376 0.46015 11989 ft 381 kts 102°
2026-05-06 09:56 51.31781 0.50158 12288 ft 383 kts 102°
2026-05-06 09:56 51.31182 0.54317 12565 ft 385 kts 102°
2026-05-06 09:56 51.30617 0.58505 12994 ft 388 kts 99°
2026-05-06 09:57 51.30164 0.62773 13950 ft 391 kts 99°
2026-05-06 09:57 51.29689 0.67073 14725 ft 396 kts 101°
2026-05-06 09:57 51.29153 0.71420 15516 ft 402 kts 101°
2026-05-06 09:57 51.28610 0.75822 16292 ft 406 kts 101°
2026-05-06 09:58 51.28083 0.80278 17058 ft 411 kts 100°
2026-05-06 09:58 51.27558 0.84729 17807 ft 415 kts 101°
2026-05-06 09:58 51.27007 0.89286 18495 ft 420 kts 101°
2026-05-06 09:58 51.26445 0.93889 19137 ft 424 kts 101°
2026-05-06 09:59 51.25882 0.98531 19791 ft 428 kts 101°
2026-05-06 09:59 51.25315 1.03214 20444 ft 432 kts 101°
2026-05-06 09:59 51.24738 1.07941 21068 ft 436 kts 102°
2026-05-06 09:59 51.24152 1.12703 21669 ft 439 kts 102°
2026-05-06 10:00 51.23561 1.17500 22299 ft 442 kts 102°
2026-05-06 10:00 51.22964 1.22337 22875 ft 446 kts 102°
2026-05-06 10:00 51.22361 1.27211 23432 ft 450 kts 102°
2026-05-06 10:00 51.21950 1.30517 23763 ft 452 kts 102°
2026-05-06 10:01 51.21334 1.35446 24257 ft 454 kts 102°
2026-05-06 10:01 51.20723 1.40331 24724 ft 457 kts 102°
2026-05-06 10:01 51.20098 1.45309 25188 ft 459 kts 102°
2026-05-06 10:01 51.19469 1.50300 25645 ft 461 kts 102°
2026-05-06 10:02 51.18833 1.55322 26088 ft 463 kts 102°
2026-05-06 10:02 51.18192 1.60369 26516 ft 466 kts 102°